• MPC Preparation (Info)

  • MPEC 2017-U235: 2017 UL6

    The following Minor Planet Electronic Circular may be linked-to from your own Web pages, but must not otherwise be redistributed electronically.

    A form allowing access to any MPEC is at the bottom of this page.


    Read MPEC 2017-U234 Read MPEC 2017-U236


    M.P.E.C. 2017-U235                               Issued 2017 Oct. 28, 01:41 UT
    
         The Minor Planet Electronic Circulars contain information on unusual
             minor planets and routine data on comets.  They are published
        on behalf of Division F of the International Astronomical Union by the
              Minor Planet Center, Smithsonian Astrophysical Observatory,
                              Cambridge, MA 02138, U.S.A.
    
                 Prepared using the Tamkin Foundation Computer Network
    
                                  MPC@CFA.HARVARD.EDU
                URL https://www.minorplanetcenter.net/    ISSN 1523-6714
    
                                       2017 UL6
    
    Observations:
         K17U06L* C2017 10 27.23410 01 00 40.49 +24 32 23.7          21.3 GUEU235G96
         K17U06L  C2017 10 27.23945 01 00 42.50 +24 32 27.9          21.1 GUEU235G96
         K17U06L  C2017 10 27.24478 01 00 44.51 +24 32 31.6          21.2 GUEU235G96
         K17U06L  C2017 10 27.25012 01 00 46.52 +24 32 33.8          22.4 GUEU235G96
         K17U06L  C2017 10 27.37850 01 01 50.26 +24 30 10.2          20.9 GUEU235G96
         K17U06L  C2017 10 27.37960 01 01 51.01 +24 30 07.0          20.8 GUEU235G96
         K17U06L  C2017 10 27.38070 01 01 51.77 +24 30 04.3          21.1 GUEU235G96
         K17U06L  C2017 10 27.38180 01 01 52.61 +24 30 00.9          20.9 GUEU235G96
         K17U06L KC2017 10 27.97380 01 29 33.85 +24 17 22.0          19.3 VqEU235595
         K17U06L KC2017 10 27.97946 01 30 00.26 +24 16 47.3          19.3 VqEU235595
         K17U06L KC2017 10 27.98990001 31 48.10 +24 10 49.4                UEU235J95
         K17U06L KC2017 10 27.99077 01 30 55.05 +24 15 27.2          19.5 VqEU235595
         K17U06L KC2017 10 27.99174401 31 57.54 +24 10 38.1                UEU235J95
         K17U06L KC2017 10 28.00631201 33 14.82 +24 08 59.8                UEU235J95
         K17U06L KC2017 10 28.00820201 33 25.24 +24 08 45.7          18.9 GUEU235J95
    
    Observer details:
    595 Farra d'Isonzo.  Observers E. Pettarin, F. Piani.  Measurer E. Pettarin.
        0.61-m f/4.0 reflector + CCD.
    G96 Mt. Lemmon Survey.  Observer R. G. Matheny.  Measurers E. J. Christensen,
        D. C. Fuls, A. R. Gibbs, A. D. Grauer, J. A. Johnson, R. A. Kowalski,
        S. M. Larson, G. J. Leonard, R. G. Matheny, R. L. Seaman, F. C. Shelly.
        1.5-m reflector + 10K CCD.
    J95 Great Shefford.  Observer P. Birtwhistle.  0.40-m f/6.0 Schmidt-Cassegrain
        + CCD.
    
    Orbital elements:
    2017 UL6                                                 Earth MOID = 0.0004 AU
    Epoch 2017 Sept. 4.0 TT = JDT 2458000.5                 MPC
    M 286.52916              (2000.0)            P               Q
    n   0.71428961     Peri.  240.16643     -0.08765591     -0.99532691
    a   1.2394238      Node   214.93392     +0.93662366     -0.06850369
    e   0.2880135      Incl.    4.05636     +0.33919398     -0.06805578
    P   1.38           H   32.0           G   0.15           U   6
    Residuals in seconds of arc
    171027 G96  0.0   0.1-    171027 G96  0.5-  0.2-    171027 J95  0.2-  0.5+
    171027 G96  0.3+  0.0     171027 G96  0.8-  0.2+    171027 595  1.1+  1.0-
    171027 G96  0.6+  0.3+    171027 G96  0.0   0.2-    171027 J95  0.2-  0.3+
    171027 G96  0.6+  0.2-    171027 595  0.5+  0.1-    171028 J95  0.2-  0.3-
    171027 G96  0.1-  0.0     171027 595  0.8+  0.6+    171028 J95  0.2+  0.4-
    
    Ephemeris:
    2017 UL6                 a,e,i = 1.24, 0.29, 4                   q = 0.8825
    Date    TT    R. A. (2000) Decl.     Delta      r     Elong.  Phase     V
    2017 09 28    00 44 03.9 +22 32 27   0.1356  1.1293   158.4    19.1    28.9
    ...
    2017 10 13    00 43 13.2 +23 55 34   0.06545 1.0603   162.3    16.6    27.1
    ...
    2017 10 21    00 43 33.1 +24 17 38   0.03121 1.0250   160.4    19.0    25.5
    ...
    2017 10 27    00 57 09.6 +24 34 01   0.0062280.9997   160.0    19.9    22.0
    2017 10 28    01 33 14.7 +24 42 16   0.0020730.9956   165.6    14.4    19.4
    2017 10 29    12 48 21.1 -24 27 22   0.0022820.9912    22.8   157.1    28.8
    ...
    2017 11 04    13 33 35.1 -24 37 04   0.02727 0.9658    17.4   162.1
    ...
    2017 11 12    13 37 47.5 -24 23 44   0.06148 0.9332    22.2   156.4
    ...
    2017 11 27    13 49 02.2 -24 00 29   0.1316  0.8791    32.8   142.5    34.5
    
    A. U. Tomatic                (C) Copyright 2017 MPC           M.P.E.C. 2017-U235
    

    Read MPEC 2017-U234 Read MPEC 2017-U236


    MPEC number:

    Enter an MPEC number in one of the following forms:

    • 1997-B01 (the full form)
    • J97B01 (the packed version of the full form)
    • B01 (the abbreviated form)